{"data":{"norad_id":69863,"intl_designator":"2026-155R","name":"QIANFAN-234","alt_names":[],"object_type":"PAYLOAD","status":"ACTIVE","operator":null,"country":"PRC","launch_date":"2026-07-05","launch_site_code":"WSC","launch_vehicle":null,"mission":null,"orbit_class":"UNKNOWN","rcs_meters":null,"size_class":null,"mass_kg":null,"dimensions":null,"purposes":[],"wikipedia_slug":null,"has_3d_model":false,"image_url":null,"decayed_at":null,"tle_current":{"epoch":"2026-09-19T19:29:00.098880Z","epoch_age_seconds":81135,"freshness":"FRESH","line1":"1 69863U 26155R   26262.81180670 -.01839708  00000+0 -27950+1 0  9990","line2":"2 69863  89.0076  53.7016 0032146  12.8444 347.3522 13.56400445 10688","mean_motion":13.56400445,"eccentricity":0.0032146,"inclination_deg":89.0076,"raan_deg":53.7016,"arg_perigee_deg":12.8444,"mean_anomaly_deg":347.3522,"bstar":-2.795,"rev_number":1068,"period_min":106.16333880663,"perigee_km":1024.9279643786,"apogee_km":1072.6772444834,"semimajor_km":7426.939604431,"source":"CELESTRAK","updated_at":"2026-09-20T09:00:25.160477Z"}}}